When you browse on this site, cookies collect data to enhance your experience and personalize the content and advertising you see.
Visit our Privacy Policy to learn more. By continuing to use the site, you agree to this use of cookies and data.
  • In Romania
  • List of Countries
  • For 7 days
  • Water Temperature
  • Weather Map
  • Weather Widgets
  • user-avatar
    Login

    Hourly Weather Diapaga

    Today, 13 December, Friday

    Time Temperature Precipitation Wind Pressure Humidity
    00:00 +23°C° 0 mm 2 mps 736 mmHg 17%
    01:00 +21°C° 0 mm 2 mps 735 mmHg 18%
    02:00 +21°C° 0 mm 3 mps 735 mmHg 19%
    03:00 +21°C° 0 mm 3 mps 735 mmHg 19%
    04:00 +20°C° 0 mm 3 mps 735 mmHg 21%
    05:00 +20°C° 0 mm 3 mps 736 mmHg 22%
    06:00 +20°C° 0 mm 3 mps 736 mmHg 23%
    07:00 +22°C° 0 mm 4 mps 737 mmHg 20%
    08:00 +26°C° 0 mm 5 mps 737 mmHg 18%
    09:00 +29°C° 0 mm 6 mps 738 mmHg 16%
    10:00 +32°C° 0 mm 5 mps 737 mmHg 13%
    11:00 +34°C° 0 mm 5 mps 737 mmHg 11%
    12:00 +36°C° 0 mm 5 mps 736 mmHg 9%
    13:00 +36°C° 0 mm 5 mps 736 mmHg 8%
    14:00 +37°C° 0 mm 5 mps 735 mmHg 8%
    15:00 +37°C° 0 mm 5 mps 734 mmHg 8%
    16:00 +34°C° 0 mm 4 mps 735 mmHg 9%
    17:00 +32°C° 0 mm 4 mps 735 mmHg 11%
    18:00 +28°C° 0 mm 3 mps 735 mmHg 12%
    19:00 +27°C° 0 mm 3 mps 736 mmHg 13%
    20:00 +26°C° 0 mm 3 mps 736 mmHg 13%
    21:00 +25°C° 0 mm 3 mps 737 mmHg 14%
    22:00 +24°C° 0 mm 3 mps 736 mmHg 14%
    23:00 +22°C° 0 mm 3 mps 736 mmHg 14%

    Tomorrow, 14 December, Saturday

    Time Temperature Precipitation Wind Pressure Humidity
    00:00 +23°C° 0 mm 2 mps 736 mmHg 14%
    01:00 +21°C° 0 mm 3 mps 736 mmHg 14%
    02:00 +21°C° 0 mm 3 mps 735 mmHg 14%
    03:00 +20°C° 0 mm 3 mps 735 mmHg 14%
    04:00 +20°C° 0 mm 3 mps 735 mmHg 15%
    05:00 +19°C° 0 mm 3 mps 736 mmHg 15%
    06:00 +19°C° 0 mm 3 mps 736 mmHg 15%
    07:00 +21°C° 0 mm 3 mps 736 mmHg 13%
    08:00 +25°C° 0 mm 4 mps 737 mmHg 11%
    09:00 +28°C° 0 mm 4 mps 738 mmHg 8%
    10:00 +30°C° 0 mm 5 mps 737 mmHg 8%
    11:00 +33°C° 0 mm 5 mps 737 mmHg 7%
    12:00 +36°C° 0 mm 5 mps 736 mmHg 6%
    13:00 +36°C° 0 mm 5 mps 736 mmHg 6%
    14:00 +36°C° 0 mm 5 mps 735 mmHg 6%
    15:00 +37°C° 0 mm 4 mps 735 mmHg 6%
    16:00 +34°C° 0 mm 4 mps 735 mmHg 7%
    17:00 +31°C° 0 mm 3 mps 735 mmHg 9%
    18:00 +28°C° 0 mm 3 mps 735 mmHg 10%
    19:00 +27°C° 0 mm 3 mps 736 mmHg 10%
    20:00 +25°C° 0 mm 3 mps 736 mmHg 11%
    21:00 +24°C° 0 mm 3 mps 737 mmHg 11%
    22:00 +22°C° 0 mm 3 mps 737 mmHg 11%
    23:00 +22°C° 0 mm 3 mps 736 mmHg 11%

    Day after tomorrow, 15 December, Sunday

    Time Temperature Precipitation Wind Pressure Humidity
    00:00 +21°C° 0 mm 3 mps 736 mmHg 11%
    01:00 +21°C° 0 mm 3 mps 736 mmHg 10%
    02:00 +20°C° 0 mm 3 mps 735 mmHg 10%
    03:00 +20°C° 0 mm 3 mps 735 mmHg 10%
    04:00 +19°C° 0 mm 3 mps 735 mmHg 9%
    05:00 +19°C° 0 mm 3 mps 736 mmHg 9%
    06:00 +18°C° 0 mm 3 mps 736 mmHg 9%
    07:00 +21°C° 0 mm 3 mps 736 mmHg 8%
    08:00 +25°C° 0 mm 4 mps 737 mmHg 7%
    09:00 +28°C° 0 mm 4 mps 737 mmHg 6%
    10:00 +30°C° 0 mm 4 mps 737 mmHg 5%
    11:00 +34°C° 0 mm 4 mps 736 mmHg 5%
    12:00 +36°C° 0 mm 4 mps 736 mmHg 4%
    13:00 +37°C° 0 mm 4 mps 735 mmHg 4%
    14:00 +37°C° 0 mm 4 mps 735 mmHg 4%
    15:00 +37°C° 0 mm 4 mps 734 mmHg 4%
    16:00 +35°C° 0 mm 4 mps 734 mmHg 6%
    17:00 +31°C° 0 mm 3 mps 734 mmHg 7%
    18:00 +28°C° 0 mm 3 mps 734 mmHg 8%
    19:00 +27°C° 0 mm 3 mps 735 mmHg 9%
    20:00 +25°C° 0 mm 3 mps 735 mmHg 9%
    21:00 +24°C° 0 mm 3 mps 736 mmHg 10%
    22:00 +22°C° 0 mm 3 mps 735 mmHg 10%
    23:00 +22°C° 0 mm 3 mps 735 mmHg 10%

    16 December, Monday

    Time Temperature Precipitation Wind Pressure Humidity
    00:00 +21°C° 0 mm 3 mps 735 mmHg 11%
    01:00 +20°C° 0 mm 3 mps 735 mmHg 11%
    02:00 +20°C° 0 mm 3 mps 734 mmHg 11%
    03:00 +19°C° 0 mm 3 mps 734 mmHg 11%
    04:00 +19°C° 0 mm 3 mps 734 mmHg 11%
    05:00 +18°C° 0 mm 3 mps 734 mmHg 12%
    06:00 +18°C° 0 mm 3 mps 735 mmHg 12%
    07:00 +21°C° 0 mm 4 mps 735 mmHg 10%
    08:00 +25°C° 0 mm 4 mps 736 mmHg 9%
    09:00 +28°C° 0 mm 5 mps 736 mmHg 8%
    10:00 +30°C° 0 mm 5 mps 735 mmHg 7%
    11:00 +34°C° 0 mm 4 mps 735 mmHg 6%
    12:00 +36°C° 0 mm 4 mps 734 mmHg 5%
    13:00 +37°C° 0 mm 4 mps 733 mmHg 5%
    14:00 +37°C° 0 mm 4 mps 733 mmHg 5%
    15:00 +38°C° 0 mm 4 mps 732 mmHg 5%
    16:00 +35°C° 0 mm 3 mps 732 mmHg 6%
    17:00 +31°C° 0 mm 3 mps 732 mmHg 8%
    18:00 +28°C° 0 mm 3 mps 732 mmHg 9%
    19:00 +27°C° 0 mm 3 mps 733 mmHg 10%
    20:00 +26°C° 0 mm 3 mps 733 mmHg 11%
    21:00 +24°C° 0 mm 3 mps 734 mmHg 12%
    22:00 +24°C° 0 mm 3 mps 733 mmHg 12%
    23:00 +22°C° 0 mm 3 mps 733 mmHg 12%

    17 December, Tuesday

    Time Temperature Precipitation Wind Pressure Humidity
    00:00 +22°C° 0 mm 3 mps 733 mmHg 13%
    01:00 +21°C° 0 mm 3 mps 733 mmHg 13%
    02:00 +21°C° 0 mm 3 mps 733 mmHg 13%
    03:00 +20°C° 0 mm 3 mps 733 mmHg 14%
    04:00 +20°C° 0 mm 3 mps 733 mmHg 14%
    05:00 +19°C° 0 mm 3 mps 733 mmHg 14%
    06:00 +19°C° 0 mm 3 mps 734 mmHg 14%
    07:00 +22°C° 0 mm 3 mps 734 mmHg 13%
    08:00 +26°C° 0 mm 4 mps 735 mmHg 11%
    09:00 +28°C° 0 mm 4 mps 735 mmHg 9%
    10:00 +32°C° 0 mm 4 mps 735 mmHg 8%
    11:00 +34°C° 0 mm 4 mps 735 mmHg 7%
    12:00 +37°C° 0 mm 3 mps 734 mmHg 6%
    13:00 +37°C° 0 mm 3 mps 734 mmHg 6%
    14:00 +38°C° 0 mm 2 mps 733 mmHg 6%
    15:00 +39°C° 0 mm 1 mps 732 mmHg 6%
    16:00 +35°C° 0 mm 1 mps 732 mmHg 7%
    17:00 +32°C° 0 mm 2 mps 732 mmHg 9%
    18:00 +29°C° 0 mm 2 mps 733 mmHg 10%
    19:00 +28°C° 0 mm 2 mps 733 mmHg 11%
    20:00 +27°C° 0 mm 2 mps 734 mmHg 12%
    21:00 +26°C° 0 mm 3 mps 734 mmHg 13%
    22:00 +25°C° 0 mm 3 mps 734 mmHg 14%
    23:00 +24°C° 0 mm 3 mps 734 mmHg 14%

    18 December, Wednesday

    Time Temperature Precipitation Wind Pressure Humidity
    00:00 +24°C° 0 mm 3 mps 734 mmHg 15%
    01:00 +22°C° 0 mm 3 mps 734 mmHg 16%
    02:00 +23°C° 0 mm 2 mps 733 mmHg 16%
    03:00 +21°C° 0 mm 2 mps 733 mmHg 17%
    04:00 +21°C° 0 mm 2 mps 733 mmHg 18%
    05:00 +20°C° 0 mm 3 mps 734 mmHg 18%
    06:00 +20°C° 0 mm 3 mps 734 mmHg 19%
    07:00 +24°C° 0 mm 3 mps 735 mmHg 17%
    08:00 +27°C° 0 mm 4 mps 736 mmHg 16%
    09:00 +30°C° 0 mm 4 mps 736 mmHg 14%
    10:00 +33°C° 0 mm 4 mps 736 mmHg 12%
    11:00 +36°C° 0 mm 4 mps 735 mmHg 11%
    12:00 +38°C° 0 mm 4 mps 735 mmHg 9%
    13:00 +39°C° 0 mm 3 mps 734 mmHg 9%
    14:00 +39°C° 0 mm 3 mps 734 mmHg 8%
    15:00 +39°C° 0 mm 3 mps 733 mmHg 8%
    16:00 +37°C° 0 mm 3 mps 733 mmHg 10%
    17:00 +34°C° 0 mm 3 mps 733 mmHg 11%
    18:00 +31°C° 0 mm 3 mps 733 mmHg 13%
    19:00 +29°C° 0 mm 3 mps 734 mmHg 14%
    20:00 +28°C° 0 mm 3 mps 734 mmHg 16%
    21:00 +27°C° 0 mm 3 mps 735 mmHg 17%
    22:00 +26°C° 0 mm 3 mps 735 mmHg 18%
    23:00 +25°C° 0 mm 3 mps 735 mmHg 19%
    Show more